Regional Weather Roundup
Issued by NWS Boston, MA

Home | Current Version | Previous Version | Text Only | Print | Product List | Glossary On
Versions: 1 2 3 4 5 6 7 8 9 10 11 12 13 14 15 16 17 18 19 20 21 22 23 24 25 26 27 28 29 30 31 32 33 34 35 36 37 38 39 40 41 42 43 44 45 46 47 48 49
000
ASUS41 KBOX 280610
RWRBOX

REGIONAL WEATHER ROUNDUP
NATIONAL WEATHER SERVICE TAUNTON MA
200 AM EDT SAT MAR 28 2015

NOTE:  "FAIR" INDICATES FEW OR NO CLOUDS BELOW 12,000 FEET WITH NO
SIGNIFICANT WEATHER AND/OR OBSTRUCTIONS TO VISIBILITY.  THE FOLLOWING
OBSERVATION LOCATIONS DO NOT REPORT PRESENT WEATHER...PROVINCETOWN...
SMITHFIELD...BLOCK ISLAND...KEENE...AND OXFORD.

MAZALL-280700-
EASTERN MASSACHUSETTS

CITY           SKY/WX    TMP DP  RH WIND       PRES   REMARKS
BOSTON         CLOUDY    39  35  86 NW7       29.75F
6HR MIN TEMP:  37; 6HR MAX TEMP:  41;

BEVERLY        CLOUDY    37  33  85 N6        29.73F
LAWRENCE       CLOUDY    36  31  82 N9        29.76F WCI  29
BEDFORD        CLOUDY    33  32  96 NW3       29.74F
BLUE HILL        N/A     35  34  96 N12       29.71F WCI  27
NORWOOD        FOG       34  33  96 CALM      29.75S VSB 3/4
MARSHFIELD     CLOUDY    37  36  93 CALM      29.75F
PLYMOUTH       CLOUDY    34  33  96 CALM      29.73F FOG
TAUNTON        CLOUDY    36  35  96 CALM      29.73F FOG
NEW BEDFORD    LGT RAIN  38  37  97 CALM      29.73F FOG
$$

MAZALL-280700-
CAPE COD AND THE ISLANDS

CITY           SKY/WX    TMP DP  RH WIND       PRES   REMARKS
FALMOUTH       CLOUDY    36  34  93 CALM      29.73F
HYANNIS        CLOUDY    37  34  89 N3        29.72S
CHATHAM        LGT RAIN  37  36  96 CALM      29.74S
PROVINCETOWN   CLOUDY    37  34  87 N6        29.75S
NANTUCKET      LGT RAIN  38  36  92 N9        29.72F WCI  31
MARTHAS VNYRD  LGT RAIN  37  32  82 N3        29.73F
$$

MAZALL-280700-
CENTRAL AND WESTERN MASSACHUSETTS

CITY           SKY/WX    TMP DP  RH WIND       PRES   REMARKS
WORCESTER      CLOUDY    36  27  69 N7        29.72S WCI  30
6HR MIN TEMP:  36; 6HR MAX TEMP:  38;

FITCHBURG      CLOUDY    37  30  75 N5        29.76S
ORANGE         CLOUDY    34  29  82 NW12      29.76S WCI  25
SPRINGFIELD    CLOUDY    37  29  74 NW6       29.76S WCI  32
WESTFIELD      CLOUDY    37  28  70 N5        29.77S
NORTH ADAMS    CLOUDY    31  26  82 NW6       29.81S WCI  25
PITTSFIELD     CLOUDY    30  26  85 VRB5      29.76F WCI  25
$$

RIZALL-280700-
RHODE ISLAND

CITY           SKY/WX    TMP DP  RH WIND       PRES   REMARKS
PROVIDENCE     CLOUDY    39  37  92 NW3       29.74F FOG
6HR MIN TEMP:  38; 6HR MAX TEMP:  40;

NEWPORT        LGT RAIN  38  37  97 E3        29.73F
BLOCK ISLAND   CLOUDY    39  36  87 CALM      29.73S
SMITHFIELD     CLOUDY    37  30  75 N7        29.73S
WESTERLY       CLOUDY    38  36  92 CALM      29.74F
$$

CTZALL-280700-
CONNECTICUT

CITY           SKY/WX    TMP DP  RH WIND       PRES   REMARKS
BRADLEY INTL   CLOUDY    38  27  64 NW9       29.76F WCI  31
6HR MIN TEMP:  38; 6HR MAX TEMP:  41;

HARTFORD       CLOUDY    38  27  64 VRB7      29.77F
BRIDGEPORT     CLOUDY    39  25  57 NW10      29.77F
DANBURY        CLOUDY    35  20  54 N8        29.79F WCI  29
GROTON         CLOUDY    40  32  73 N10       29.73F
NEW HAVEN      CLOUDY    38  26  62 N10       29.75F WCI  31
CHESTER        CLOUDY    37  30  75 N13G20    29.74F WCI  29
MERIDEN        CLOUDY    38  25  59 NW8       29.77F
WILLIMANTIC    CLOUDY    37  30  75 N3        29.76F
OXFORD         CLOUDY    34  21  60 N10       29.77S WCI  26
$$

MEZ002-015-021-024-NHZ003-005-008-011-012-014-VTZ005-008-280700-
NORTHERN NEW ENGLAND

CITY           SKY/WX    TMP DP  RH WIND       PRES   REMARKS
PORTLAND ME    CLOUDY    39  29  67 N6        29.78R
6HR MIN TEMP:  38; 6HR MAX TEMP:  41;

BANGOR ME      MOCLDY    32  21  64 N15       29.79R WCI  22
CONCORD NH     CLOUDY    36  29  75 NW6       29.77F WCI  31
MANCHESTER NH  CLOUDY    37  32  82 N7        29.75F WCI  32
NASHUA NH      CLOUDY    37  32  82 CALM      29.77S
PORTSMOUTH NH  CLOUDY    36  32  85 N3        29.75S
JAFFREY NH     CLOUDY    33  29  85 CALM      29.74F
KEENE NH       CLOUDY    34  28  80 N3        29.77S
BURLINGTON VT  FLURRIES  26  21  81 N10       29.90S WCI  16
MT. WASHINGTON NOT AVBL
$$

NYZ052-076-280700-
EASTERN NEW YORK

CITY           SKY/WX    TMP DP  RH WIND       PRES   REMARKS
ALBANY         FLURRIES  31  25  78 NW7       29.86F WCI  24
6HR MIN TEMP:  31; 6HR MAX TEMP:  38; 6HR PCP: TRACE;

NEW YORK CITY  CLOUDY    39  25  57 N15       29.78R WCI  31
6HR MIN TEMP:  39; 6HR MAX TEMP:  45;

$$

ANZALL-280700-
MARINE OBSERVATIONS

STATION/POSITION TIME  TEMP    WIND        PRES    VSBY  WAVE
                       AIR SEA DIR/SP/G                  HT/PER
                 (UTC) (F)     (DEG/KT/KT) (MB)    (MI)  (FT/S)
BOSTON BUOY      0550   36 37  350/  2/  2 1007.3F         3/11
BUZZARDS BAY     0600           90/  5/  5 1007.6F
NANTUCKET SOUND  0550   37 36  340/  6/  8 1006.9F         1/ 6
MASS BAY-STELLWA 0504   36 37  290/  2/  4   N/A    1 7/8  4/11
ISLE OF SHOALS   0600   38      40/ 11/ 13 1007.0S
S OF BLOCK IS    0508      38                N/A           8/11
$$

......................KEY.........................
  SKY/WX - SKY CONDITION/PRESENT WEATHER
  TMP    - TEMPERATURE IN FAHRENHEIT
  DWPT   - DEWPOINT IN FAHRENHEIT
  RH     - RELATIVE HUMIDITY IN PERCENT
  WIND   - DIRECTION AND SPEED IN MPH
  PRES   - MEAN SEA LEVEL PRESSURE IN INCHES OF HG
  WCI    - WIND CHILL INDEX
  VSB    - VISIBILITY IN MILES
  HX     - HEAT INDEX
  TC     - TEMPERATURE IN CELSIUS
  VRB    - VARIABLE WIND DIRECTION
  N/A    - NOT AVAILABLE


USA.gov is the U.S. government's official web portal to all federal, state and local government web resources and services.